Вернуться в каталог

SL-24 DEB

АктивенLEO
NORAD 31791·DEBRIS·🇷🇺 Russia

Запущен Jun 28, 2007 с Dombarovsky

Loading…

Ближайшие Пролёты (ближайшие 24 часа)

TLE

СвежийSource: Space-Track

Эпоха: Sep 14, 2026, 08:46 UTC

1 31791U 07028C   26257.36528792  .00000085  00000-0  64948-4 0  9990
2 31791  64.5283 139.2763 0817030  59.0863 308.7898 13.26452272929830

Отслеживайте SL-24 DEB в реальном времени с AllMySat

Download on the App Store